FUSE 1

Satellite information

Favourite Embed

Satellite Type and Status

PAYLOADIN ORBIT

Key statistics

Satellite FUSE 1 at a glance.

Uptime

9510

Days in orbit

Revolutions

≈ 14.4

Per day

Orbit

LEO

Low Earth Orbit

Inclination

25.0

Latest

Satellite identification and parameters

Extended collection of information and parameters for FUSE 1.

Object identification

Identified? True

Debris? False

Object name: FUSE 1

International designator: 1999-035A

Object number (NORAD): 25791

Object ID (CCSDS): 25791

Country: UNITED STATES OF AMERICA (US)

Current information (Y/N): Y

RCS size: LARGE

Orbital parameters

Period: 99.709 minutes

Inclination: 24.9858 deg

SMA: 7122.774 km

Apoapsis: 751.982 km

Periapsis: 737.296 km

RAAN: 334.1671 deg

Eccentricy: 0.0010309

Argument of periapsis: 41.7549 deg

Mean anomaly: 318.3745 deg

Mean motion: 14.44205669 rev/day

Mean motion (dot): 0.0000039 rev/day2

B* drag term: 0.000059828 1/REarth

Two-line elements (TLE)

Creation date: July 6, 2025, 6:05 p.m.

Reference frame: TEME

Reference center: EARTH

Epoch: July 6, 2025, 2:03 p.m. UTC

TLE line 0: 0 FUSE 1

TLE line 1: 1 25791U 99035A 25187.58580765 .00000390 00000-0 59828-4 0 9995

TLE line 2: 2 25791 24.9858 334.1671 0010309 41.7549 318.3745 14.44205669373948

Live tracking on map

Real-time ground track for satellite FUSE 1.

In-orbit conjunctions

A list of the most updated potential collisions computed for object FUSE 1.

Target Orbit TCA Probability of collision Miss distance Type
PEGASUS DEB LEO 2025-02-02 20:48:40 0.0002514717 861.0 (m) DEBRIS
FENGYUN 1C DEB SSO 2024-12-15 01:44:47 0.000103741 889.0 (m) DEBRIS
PSLV DEB SSO 2024-12-12 23:59:01 0.0001715494 977.0 (m) DEBRIS
NOAA 16 DEB SSO 2024-11-25 08:45:11 0.0001279563 361.0 (m) DEBRIS

Associated space launch

FUSE (Far Ultraviolet Spectroscopic Explorer) represented the next generation, high-orbit, ultraviolet space observatory covering the wavelength range of 90.5-119.5 nm. The primary objective of FUSE was to use high-resolution spectroscopy at far ultraviolet wavelengths to study the origin and evolution of the lightest elements (hydrogen and deuterium) created shortly after the Big Bang, and the forces and processes involved in the evolution of galaxies, stars and planetary systems.

FUSE 1 was lifted into orbit during the mission ‘Delta II | FUSE’, on board a Delta II space rocket.

The launch took place on June 24, 1999, 3:44 p.m. from Space Launch Complex 17A.

For more information about the launch, click the button.

Launch to space Delta II | FUSE
Delta II | FUSE

Agency: N/A

Status: Launch Successful

Launch date: June 24, 1999, 3:44 p.m. UTC

Rocket: Delta II

Launch pad: Space Launch Complex 17A

Location: Cape Canaveral SFS, FL, USA

...

Latest news about this satellite

There are no fresh news available about this satellite. Check back as we update our databases every day.


Newsletter sign-up

Weekly statistics, charts and insights to help you stay on top of the space industry.